Regional Weather Roundup
Issued by NWS

Home | Current Version | Previous Version | Graphics & Text | Print | Product List | Glossary On
Versions: 1 2 3 4 5 6 7 8 9 10 11 12 13 14 15 16 17 18 19 20 21 22 23 24 25 26 27 28 29 30 31 32 33 34 35 36 37 38 39 40 41 42 43 44 45 46 47 48 49 50
000
ASUS43 KMKX 260200
RWRWI

WISCONSIN REGIONAL WEATHER ROUNDUP
NATIONAL WEATHER SERVICE MILWAUKEE/SULLIVAN WI
800 PM CST TUE NOV 25 2014

NOTE: "FAIR" INDICATES FEW OR NO CLOUDS BELOW 12,000 FEET WITH NO
SIGNIFICANT WEATHER AND/OR OBSTRUCTIONS TO VISIBILITY.

WIZ001-002-006>008-014>016-023>028-260300-
NORTHWEST WISCONSIN

CITY           SKY/WX    TMP DP  RH WIND       PRES   REMARKS
SUPERIOR ARPT  CLOUDY    18  11  74 SW3       30.06R
ASHLAND        CLOUDY    12   9  87 CALM      30.08R
HAYWARD        CLOUDY    15  11  83 CALM      30.03R
SIREN          CLOUDY    20  14  76 CALM      30.03S
CUMBERLAND     CLOUDY    21  14  73 S6        30.01S WCI  14
RICE LAKE      CLOUDY    21  15  77 SE7       30.04S WCI  13
CHETEK         CLOUDY    20  15  79 SE5       30.04S WCI  14
LADYSMITH      CLOUDY    20  15  80 S6        30.05S WCI  12
EAU CLAIRE     CLOUDY    22  14  71 SE8       30.05F WCI  12
MENOMONIE      CLOUDY    23  16  74 SE3       30.05S
NEW RICHMOND   CLOUDY    23  16  75 S6        30.03S WCI  15
OSCEOLA        CLOUDY    23  16  76 SE5       30.06S WCI  17
$$

WIZ003>005-009-010-017-018-260300-
NORTH CENTRAL WISCONSIN

CITY           SKY/WX    TMP DP  RH WIND       PRES   REMARKS
MANITOWISH WTR PTCLDY     3   0  88 CALM      30.00S
ARBOR VITAE    PTCLDY     9   6  87 CALM      30.01R
WOODRUFF       PTCLDY     9   6  87 CALM      30.01R
RHINELANDER    CLEAR      7   3  84 CALM      30.02S FOG
EAGLE RIVER    CLEAR      2  -3  81 CALM      30.01S
LAND O LAKES   CLEAR      0  -3  85 CALM      30.01S
PHILLIPS       MOCLDY     8   6  93 CALM      30.01R
TOMAHAWK       FAIR       5   2  86 CALM      30.04R
MEDFORD        CLOUDY    17  12  82 SE5       30.02S WCI  10
MERRILL        CLEAR      9   7  92 CALM      30.04F
$$

WIZ029-030-035-036-043>047-260300-
CENTRAL WISCONSIN

CITY           SKY/WX    TMP DP  RH WIND       PRES   REMARKS
WAUSAU         CLEAR     13  10  88 E3        30.04F
MOSINEE        CLEAR     10  10 100 CALM      30.06S
MARSHFIELD     CLOUDY    20  14  77 CALM      30.04F
STEVENS POINT  CLEAR      6   3  90 CALM      30.08S
WAUPACA        CLEAR     15  12  89 CALM      30.11S
WAUTOMA        FOG        7   3  85 CALM      30.11S VSB 3/4
WISC RAPIDS    CLOUDY    17  13  84 S3        30.09S
CAMP DOUGLAS   NOT AVBL
$$

WIZ011>013-019>022-031-037>040-048>050-260300-
NORTHEAST WISCONSIN

CITY           SKY/WX    TMP DP  RH WIND       PRES   REMARKS
ANTIGO           N/A      3   1  91 CALM      30.04S FOG
SHAWANO        CLEAR     17  14  88 CALM      30.10S
OCONTO         CLOUDY    20  17  86 W3        30.12R
STURGEON BAY   CLOUDY    23  16  74 SW6       30.11R WCI  16
GREEN BAY      CLOUDY    21  15  78 SW3       30.12S
MANITOWOC      NOT AVBL
APPLETON       CLOUDY    19  16  86 W6        30.11S WCI  11
CLINTONVILLE   CLEAR     12  10  92 CALM      30.10S
OSHKOSH        CLOUDY    19  14  81 CALM      30.12S
$$

WIZ032>034-041-042-053>061-260300-
SOUTHWEST WISCONSIN

CITY           SKY/WX    TMP DP  RH WIND       PRES   REMARKS
LA CROSSE      MOCLDY    22  14  71 S8        30.10S WCI  12
SPARTA         CLOUDY    18  15  88 CALM      30.10R
VIROQUA        PTCLDY    15  12  85 S3        30.06R
BOSCOBEL       CLEAR     12   8  84 CALM      30.12S
PRAIRIE DU CHI CLEAR     16  12  85 CALM      30.12S
PLATTEVILLE    CLEAR     18  15  89 CALM      30.11S
$$

WIZ056-057-062-063-064-067-068-260300-
SOUTH CENTRAL WISCONSIN

CITY           SKY/WX    TMP DP  RH WIND       PRES   REMARKS
REEDSBURG      CLEAR     14  12  92 CALM      30.09F
BARABOO/DELLS  CLEAR     14  12  92 S3        30.09S FOG
LONE ROCK      NOT AVBL
MINERAL POINT  CLEAR     19  16  86 S3        30.09S
MADISON        CLEAR     15  13  91 CALM      30.12R
MIDDLETON      CLEAR     10   7  89 CALM      30.12S
WATERTOWN      CLOUDY    20  17  88 CALM      30.13R
MONROE         CLEAR     16  14  93 S6        30.11R WCI   7
JANESVILLE     CLEAR     12  10  92 CALM      30.15R
$$

WIZ051-052-058>065-066-070>072-260300-
SOUTHEAST WISCONSIN

CITY           SKY/WX    TMP DP  RH WIND       PRES   REMARKS
MILWAUKEE      CLOUDY    21  15  78 SW5       30.16R WCI  15
WAUKESHA       CLOUDY    18  16  93 SW5       30.15R WCI  11
MILWAUKEE/TIMM CLOUDY    21  16  79 SW6       30.15R WCI  14
RACINE         CLOUDY    21  15  78 W3        30.18R
BURLINGTON     CLOUDY    17  14  88 S3        30.15R
KENOSHA        CLOUDY    21  16  81 W6        30.16R WCI  13
FOND DU LAC    CLOUDY    20  14  77 S3        30.12S
SHEBOYGAN      CLOUDY    20  15  81 W6        30.13S WCI  12
WEST BEND      CLOUDY    21  16  79 W3        30.13R
JUNEAU         MOCLDY    17  15  93 CALM      30.13R
$$

LSZ147-162-260300-
LAKE SUPERIOR

STATION/POSITION TIME  TEMP    WIND        PRES    WAVE
                       AIR SEA DIR/SP/G            HT/PER
                 (UTC) (F)     (DEG/KT/KT) (MB)    (FT/S)
DEVILS ISLAND    0100   23     230/ 13/ 16 1018.4R
PORT WING        0140   17     150/  3/  4 1018.3R
SAXON HARBOR     0100   14        CALM     1017.6R
$$

LMZ867-665-643>646-260300-
LAKE MICHIGAN

STATION/POSITION TIME  TEMP    WIND        PRES    WAVE
                       AIR SEA DIR/SP/G            HT/PER
                 (UTC) (F)     (DEG/KT/KT) (MB)    (FT/S)
CHAMBERS ISLAND  0100   26     220/  3/  7 1019.3R
N MID LAKE BUOY  0050   28 42  280/  8/ 10 1019.7R   1/ 6
NORTHPORT PIER   0102   26     160/  2/  4 1019.3R
SISTER BAY       0113             CALM       N/A
ALGOMA LAKESHORE 0028          240/  6/  9   N/A
KEWAUNEE LAKESHO 0100   22     240/  6/  9 1019.1R
SHEBOYGAN LAKESH 0100   21 36  230/  8/ 10 1021.9R
PORT WASHINGTON  0140   23     250/  3/  8 1021.7R
MILWAUKEE LAKESH 0100   22     230/  7/  9   N/A
S MID LAKE BUOY  0050   29 42  250/ 10/ 14 1022.0R   3/ 6
KENOSHA   LAKESH 0100   23     220/  4/  6 1021.3R
$$

TC  - TEMPERATURE IN CELSIUS
VSB - VISIBILITY IN STATUTE MILES
WCI - WIND CHILL INDEX
HX  - HEAT INDEX



USA.gov is the U.S. government's official web portal to all federal, state and local government web resources and services.